Find Starlink 32448

NORAD ID: 62206 Int'l Des: 2024-229 Owner: SPXS Country: US Constellation: starlink operational
LEOCIRCULAR

当前视图

正在加载3D地球...

About Starlink 32448

Starlink 32448 (NORAD 62206) is a starlink constellation satellite (v2 mini) launched Dec 4, 2024 by SPXS of US. It operates in LEO, CIRCULAR orbit with a mass of 730.00 kg.

关于 Starlink 32448

正在加载描述...

即将过境

Passes for default location (London). Set your location on the main map for personalized predictions.

高度历史

Loading altitude history...

两行轨道根数

1 62206U 24229Q 26167.02085191 .00013967 00000-0 51572-3 0 9992
2 62206 42.9982 75.0633 0002124 268.7087 91.3521 15.27603879 85601
Epoch: Jun 16, 2026 • Age: 8 hours

当前状态

高度 486.8 km
速度 7.63 km/s
星下点 40.04°N, 102.37°E
发射日期 Dec 4, 2024
运行时间 1.5 years
类型 internet

技术详情

分类 Payload
质量 730.00 kg
干质量 700.00 kg
总质量 730.00 kg
长度 0.30 m
直径 4.10 m
跨度 29.00 m
形状 Box + pan
制造商 SPXS
平台类型 Starlink V2M
阶段状态 In Orbit
所有者/国家 SPXS/US

Most Searched